GAP2132 RPLL-RPVI

Flight info

Callsign GAP2132
Flight time 0h 47m
Altitude 31000
Route VERDE2R VERDE W24 TAPER B472 LAMBO LAMBO2S
Aircraft A321/M-SDE3FGHIRWY/LB1

Departure

Time 2026-05-07 22:46
Airport Ninoy Aquino International Airport (RPLL)

Arrival

Time 2026-05-07 23:33
Airport Iloilo International Airport (RPVI)
Time Latitude Longitude Altitude Speed Heading
2026-05-07 22:20 14.51025 121.01406 69 ft 0 kts 225°
2026-05-07 22:33 14.51039 121.01420 63 ft 4 kts 221°
2026-05-07 22:33 14.51060 121.01438 63 ft 4 kts 212°
2026-05-07 22:33 14.51084 121.01449 63 ft 4 kts 187°
2026-05-07 22:34 14.51104 121.01447 61 ft 1 kts 135°
2026-05-07 22:34 14.51105 121.01446 62 ft 0 kts 134°
2026-05-07 22:39 14.51095 121.01456 63 ft 5 kts 134°
2026-05-07 22:40 14.51054 121.01499 62 ft 11 kts 135°
2026-05-07 22:40 14.50997 121.01558 66 ft 10 kts 135°
2026-05-07 22:40 14.50933 121.01599 65 ft 12 kts 180°
2026-05-07 22:40 14.50874 121.01537 67 ft 14 kts 240°
2026-05-07 22:41 14.50821 121.01442 63 ft 16 kts 240°
2026-05-07 22:41 14.50771 121.01351 59 ft 13 kts 240°
2026-05-07 22:41 14.50698 121.01316 66 ft 13 kts 174°
2026-05-07 22:41 14.50635 121.01262 67 ft 13 kts 241°
2026-05-07 22:42 14.50587 121.01172 64 ft 16 kts 240°
2026-05-07 22:42 14.50528 121.01067 63 ft 18 kts 240°
2026-05-07 22:42 14.50463 121.00950 65 ft 20 kts 240°
2026-05-07 22:42 14.50391 121.00821 64 ft 22 kts 240°
2026-05-07 22:43 14.50314 121.00682 63 ft 23 kts 240°
2026-05-07 22:43 14.50233 121.00537 64 ft 24 kts 240°
2026-05-07 22:43 14.50149 121.00386 63 ft 24 kts 240°
2026-05-07 22:43 14.50062 121.00231 64 ft 25 kts 240°
2026-05-07 22:44 14.49979 121.00083 66 ft 16 kts 239°
2026-05-07 22:44 14.49931 120.99995 62 ft 12 kts 237°
2026-05-07 22:44 14.49857 120.99975 69 ft 13 kts 154°
2026-05-07 22:44 14.49809 121.00045 62 ft 12 kts 76°
2026-05-07 22:45 14.49843 121.00111 64 ft 4 kts 60°
2026-05-07 22:45 14.49844 121.00113 63 ft 0 kts 60°
2026-05-07 22:45 14.49891 121.00198 61 ft 47 kts 60°
2026-05-07 22:46 14.50188 121.00729 67 ft 119 kts 60°
2026-05-07 22:46 14.50690 121.01634 69 ft 171 kts 58°
2026-05-07 22:46 14.51289 121.02692 811 ft 163 kts 61°
2026-05-07 22:46 14.51850 121.03701 1594 ft 162 kts 61°
2026-05-07 22:47 14.52423 121.04743 2053 ft 172 kts 61°
2026-05-07 22:47 14.53047 121.05876 2346 ft 194 kts 61°
2026-05-07 22:47 14.53751 121.07148 2560 ft 215 kts 61°
2026-05-07 22:47 14.54537 121.08571 2746 ft 242 kts 61°
2026-05-07 22:48 14.55398 121.10126 3299 ft 253 kts 61°
2026-05-07 22:48 14.56220 121.11739 4061 ft 256 kts 72°
2026-05-07 22:48 14.56352 121.13576 4659 ft 265 kts 102°
2026-05-07 22:48 14.55479 121.15269 5272 ft 275 kts 131°
2026-05-07 22:49 14.54120 121.16690 5990 ft 280 kts 133°
2026-05-07 22:49 14.52727 121.18119 6698 ft 284 kts 133°
2026-05-07 22:49 14.51314 121.19570 7416 ft 288 kts 134°
2026-05-07 22:49 14.49889 121.21035 8110 ft 292 kts 133°
2026-05-07 22:50 14.48442 121.22520 8793 ft 296 kts 135°
2026-05-07 22:50 14.46699 121.23665 9422 ft 304 kts 161°
2026-05-07 22:50 14.44582 121.23797 10038 ft 312 kts 191°
2026-05-07 22:50 14.42630 121.22812 10574 ft 322 kts 218°
2026-05-07 22:51 14.40953 121.21158 10707 ft 344 kts 225°
2026-05-07 22:51 14.39309 121.19292 11100 ft 355 kts 228°
2026-05-07 22:51 14.37689 121.17352 11656 ft 359 kts 229°
2026-05-07 22:51 14.36063 121.15386 12227 ft 363 kts 229°
2026-05-07 22:52 14.34425 121.13430 12811 ft 366 kts 228°
2026-05-07 22:52 14.32667 121.11520 13363 ft 369 kts 218°
2026-05-07 22:52 14.30467 121.10163 13878 ft 370 kts 199°
2026-05-07 22:52 14.27961 121.09598 14360 ft 370 kts 183°
2026-05-07 22:53 14.25382 121.09379 14865 ft 373 kts 183°
2026-05-07 22:53 14.22779 121.09169 15373 ft 376 kts 182°
2026-05-07 22:53 14.20158 121.08960 15890 ft 379 kts 182°
2026-05-07 22:53 14.17524 121.08748 16409 ft 381 kts 182°
2026-05-07 22:54 14.14863 121.08531 16918 ft 384 kts 183°
2026-05-07 22:54 14.12191 121.08310 17416 ft 387 kts 183°
2026-05-07 22:54 14.09491 121.08083 17916 ft 389 kts 183°
2026-05-07 22:54 14.06783 121.07855 18385 ft 392 kts 183°
2026-05-07 22:55 14.04052 121.07627 18809 ft 395 kts 183°
2026-05-07 22:55 14.01302 121.07397 19247 ft 397 kts 183°
2026-05-07 22:55 13.98542 121.07166 19692 ft 400 kts 183°
2026-05-07 22:55 13.95758 121.06934 20139 ft 402 kts 183°
2026-05-07 22:56 13.92960 121.06701 20592 ft 405 kts 184°
2026-05-07 22:56 13.90141 121.06467 21028 ft 407 kts 184°
2026-05-07 22:56 13.87312 121.06236 21466 ft 410 kts 184°
2026-05-07 22:56 13.84456 121.06001 21901 ft 413 kts 184°
2026-05-07 22:57 13.81584 121.05764 22332 ft 415 kts 184°
2026-05-07 22:57 13.78695 121.05527 22766 ft 418 kts 184°
2026-05-07 22:57 13.75787 121.05286 23174 ft 420 kts 184°
2026-05-07 22:57 13.72868 121.05042 23567 ft 423 kts 184°
2026-05-07 22:58 13.69925 121.04796 23888 ft 425 kts 184°
2026-05-07 22:58 13.66971 121.04552 24216 ft 427 kts 184°
2026-05-07 22:58 13.64006 121.04310 24549 ft 429 kts 184°
2026-05-07 22:58 13.61019 121.04062 24878 ft 431 kts 184°
2026-05-07 22:59 13.58025 121.03811 25201 ft 433 kts 184°
2026-05-07 22:59 13.55014 121.03603 25518 ft 435 kts 180°
2026-05-07 22:59 13.51998 121.03851 25835 ft 436 kts 169°
2026-05-07 22:59 13.49073 121.04672 26135 ft 437 kts 158°
2026-05-07 23:00 13.46332 121.06039 26447 ft 439 kts 148°
2026-05-07 23:00 13.43797 121.07793 26750 ft 441 kts 145°
2026-05-07 23:00 13.41268 121.09579 27060 ft 443 kts 145°
2026-05-07 23:00 13.38718 121.11374 27364 ft 445 kts 145°
2026-05-07 23:01 13.36157 121.13175 27669 ft 447 kts 145°
2026-05-07 23:01 13.33586 121.14979 27973 ft 449 kts 145°
2026-05-07 23:01 13.30996 121.16794 28275 ft 451 kts 146°
2026-05-07 23:01 13.28397 121.18614 28568 ft 454 kts 146°
2026-05-07 23:02 13.25780 121.20448 28871 ft 456 kts 146°
2026-05-07 23:02 13.23155 121.22289 29157 ft 458 kts 146°
2026-05-07 23:02 13.20519 121.24136 29439 ft 460 kts 146°
2026-05-07 23:02 13.17870 121.25994 29707 ft 462 kts 146°
2026-05-07 23:03 13.15205 121.27860 29976 ft 465 kts 146°
2026-05-07 23:03 13.12529 121.29733 30211 ft 467 kts 146°
2026-05-07 23:03 13.09845 121.31613 30455 ft 468 kts 146°
2026-05-07 23:03 13.07179 121.33479 30689 ft 470 kts 146°
2026-05-07 23:04 13.04436 121.35399 30875 ft 472 kts 147°
2026-05-07 23:04 13.01782 121.37258 30922 ft 460 kts 147°
2026-05-07 23:04 12.99184 121.39080 30928 ft 447 kts 147°
2026-05-07 23:05 12.94093 121.42650 30925 ft 441 kts 147°
2026-05-07 23:05 12.89022 121.46186 30922 ft 440 kts 147°
2026-05-07 23:06 12.83963 121.49720 30919 ft 440 kts 147°
2026-05-07 23:06 12.78910 121.53249 30919 ft 439 kts 147°
2026-05-07 23:07 12.73860 121.56770 30917 ft 439 kts 147°
2026-05-07 23:07 12.68804 121.60297 30912 ft 440 kts 147°
2026-05-07 23:08 12.63745 121.63823 30908 ft 440 kts 147°
2026-05-07 23:08 12.58687 121.67352 30914 ft 440 kts 147°
2026-05-07 23:09 12.53636 121.70880 30912 ft 440 kts 147°
2026-05-07 23:09 12.48580 121.74403 30911 ft 440 kts 147°
2026-05-07 23:10 12.43514 121.77923 30909 ft 439 kts 147°
2026-05-07 23:10 12.38494 121.81412 30905 ft 439 kts 147°
2026-05-07 23:11 12.33090 121.84282 30898 ft 443 kts 158°
2026-05-07 23:11 12.27306 121.86796 30896 ft 460 kts 158°
2026-05-07 23:12 12.22339 121.88963 30890 ft 465 kts 158°
2026-05-07 23:13 12.15587 121.92025 30894 ft 464 kts 158°
2026-05-07 23:13 12.12652 121.93293 30648 ft 452 kts 159°
2026-05-07 23:13 12.09793 121.94506 29720 ft 441 kts 159°
2026-05-07 23:13 12.06982 121.95694 28575 ft 434 kts 159°
2026-05-07 23:14 12.04213 121.96869 27485 ft 426 kts 158°
2026-05-07 23:14 12.01501 121.98032 26427 ft 420 kts 157°
2026-05-07 23:14 11.99730 121.98799 25754 ft 416 kts 157°
2026-05-07 23:14 11.97082 121.99952 24781 ft 411 kts 156°
2026-05-07 23:15 11.94468 122.01096 23919 ft 405 kts 156°
2026-05-07 23:15 11.91940 122.02203 23515 ft 385 kts 155°
2026-05-07 23:15 11.89536 122.03255 23058 ft 370 kts 155°
2026-05-07 23:15 11.87179 122.04284 22622 ft 367 kts 155°
2026-05-07 23:16 11.84836 122.05305 22187 ft 365 kts 155°
2026-05-07 23:16 11.82506 122.06320 21768 ft 363 kts 154°
2026-05-07 23:16 11.80188 122.07327 21340 ft 362 kts 154°
2026-05-07 23:16 11.77879 122.08332 20917 ft 360 kts 154°
2026-05-07 23:17 11.75664 122.09298 20507 ft 358 kts 154°
2026-05-07 23:17 11.73376 122.10294 20081 ft 357 kts 154°
2026-05-07 23:17 11.71097 122.11283 19661 ft 355 kts 154°
2026-05-07 23:17 11.68834 122.12266 19231 ft 353 kts 154°
2026-05-07 23:18 11.66582 122.13247 18814 ft 352 kts 153°
2026-05-07 23:18 11.64335 122.14227 18392 ft 351 kts 153°
2026-05-07 23:18 11.62095 122.15203 17935 ft 350 kts 153°
2026-05-07 23:18 11.59856 122.16176 17500 ft 348 kts 153°
2026-05-07 23:19 11.57635 122.17138 17081 ft 346 kts 153°
2026-05-07 23:19 11.55452 122.18086 16668 ft 344 kts 153°
2026-05-07 23:19 11.53259 122.19038 16252 ft 342 kts 153°
2026-05-07 23:19 11.51047 122.19996 15832 ft 340 kts 153°
2026-05-07 23:20 11.48881 122.20933 15428 ft 336 kts 153°
2026-05-07 23:20 11.46733 122.21864 15020 ft 335 kts 153°
2026-05-07 23:20 11.44594 122.22793 14609 ft 333 kts 153°
2026-05-07 23:20 11.42465 122.23717 14200 ft 332 kts 154°
2026-05-07 23:21 11.40371 122.24626 13805 ft 331 kts 153°
2026-05-07 23:21 11.38230 122.25553 13371 ft 329 kts 153°
2026-05-07 23:21 11.36138 122.26458 12958 ft 324 kts 153°
2026-05-07 23:21 11.34105 122.27338 12582 ft 319 kts 153°
2026-05-07 23:22 11.32068 122.28220 12199 ft 317 kts 153°
2026-05-07 23:22 11.30653 122.28833 11934 ft 316 kts 153°
2026-05-07 23:22 11.30163 122.29042 11845 ft 316 kts 154°
2026-05-07 23:22 11.28145 122.29904 11457 ft 314 kts 153°
2026-05-07 23:23 11.26146 122.30769 11150 ft 310 kts 153°
2026-05-07 23:23 11.24164 122.31632 10822 ft 307 kts 153°
2026-05-07 23:23 11.22223 122.32478 10628 ft 300 kts 153°
2026-05-07 23:23 11.20308 122.33313 10276 ft 300 kts 153°
2026-05-07 23:24 11.18497 122.34314 9923 ft 293 kts 137°
2026-05-07 23:24 11.17144 122.35808 9481 ft 282 kts 118°
2026-05-07 23:24 11.16405 122.37588 8954 ft 265 kts 100°
2026-05-07 23:24 11.16251 122.39430 8627 ft 260 kts 88°
2026-05-07 23:25 11.16273 122.41263 8291 ft 258 kts 88°
2026-05-07 23:25 11.16284 122.43087 7970 ft 257 kts 89°
2026-05-07 23:25 11.16294 122.44879 7643 ft 256 kts 89°
2026-05-07 23:25 11.16302 122.46705 7321 ft 254 kts 89°
2026-05-07 23:26 11.16310 122.48486 7001 ft 255 kts 89°
2026-05-07 23:26 11.16319 122.50294 6672 ft 255 kts 89°
2026-05-07 23:26 11.16285 122.52098 6343 ft 255 kts 96°
2026-05-07 23:26 11.15859 122.53847 5993 ft 256 kts 109°
2026-05-07 23:27 11.14520 122.57209 5286 ft 258 kts 118°
2026-05-07 23:27 11.13309 122.58567 4928 ft 265 kts 142°
2026-05-07 23:27 11.11642 122.59271 4546 ft 275 kts 167°
2026-05-07 23:28 11.09729 122.59117 4314 ft 278 kts 194°
2026-05-07 23:28 11.07936 122.58462 4213 ft 270 kts 197°
2026-05-07 23:28 11.06199 122.57811 4089 ft 262 kts 196°
2026-05-07 23:28 11.04514 122.57185 3971 ft 253 kts 196°
2026-05-07 23:29 11.02886 122.56583 3816 ft 246 kts 196°
2026-05-07 23:29 11.01282 122.55990 3537 ft 245 kts 196°
2026-05-07 23:29 10.99676 122.55397 3247 ft 246 kts 196°
2026-05-07 23:29 10.98088 122.54808 2937 ft 239 kts 196°
2026-05-07 23:30 10.96566 122.54243 2629 ft 225 kts 196°
2026-05-07 23:30 10.95163 122.53721 2340 ft 204 kts 195°
2026-05-07 23:30 10.93879 122.53247 2092 ft 193 kts 196°
2026-05-07 23:30 10.92659 122.52796 1847 ft 180 kts 196°
2026-05-07 23:31 10.91511 122.52372 1645 ft 169 kts 197°
2026-05-07 23:31 10.90420 122.51971 1448 ft 163 kts 196°
2026-05-07 23:31 10.89369 122.51592 1226 ft 157 kts 197°
2026-05-07 23:31 10.88355 122.51196 965 ft 157 kts 199°
2026-05-07 23:32 10.87320 122.50806 818 ft 160 kts 198°
2026-05-07 23:32 10.86273 122.50411 591 ft 161 kts 198°
2026-05-07 23:32 10.85218 122.50047 401 ft 160 kts 198°
2026-05-07 23:32 10.84167 122.49653 194 ft 160 kts 200°
2026-05-07 23:33 10.83194 122.49298 143 ft 134 kts 200°
2026-05-07 23:33 10.82501 122.49038 142 ft 53 kts 201°
2026-05-07 23:33 10.82326 122.48962 143 ft 22 kts 213°
2026-05-07 23:33 10.82253 122.48958 143 ft 4 kts 101°
2026-05-07 23:34 10.82281 122.48967 143 ft 10 kts 14°
2026-05-07 23:34 10.82357 122.48987 143 ft 20 kts 15°
2026-05-07 23:34 10.82524 122.49048 142 ft 31 kts 21°
2026-05-07 23:35 10.82730 122.49123 140 ft 32 kts 17°
2026-05-07 23:35 10.82936 122.49197 143 ft 30 kts 20°
2026-05-07 23:35 10.83045 122.49238 142 ft 12 kts 20°
2026-05-07 23:35 10.83088 122.49305 142 ft 13 kts 93°
2026-05-07 23:36 10.83058 122.49399 140 ft 15 kts 111°
2026-05-07 23:36 10.83034 122.49483 140 ft 11 kts 94°
2026-05-07 23:36 10.83078 122.49543 140 ft 12 kts 24°
2026-05-07 23:36 10.83137 122.49566 140 ft 6 kts 26°
2026-05-07 23:37 10.83132 122.49604 140 ft 7 kts 119°
2026-05-07 23:37 10.83119 122.49638 140 ft 5 kts 110°
2026-05-07 23:37 10.83115 122.49651 140 ft 0 kts 110°